Regional Weather Roundup
Issued by NWS

Home | Current Version | Previous Version | Text Only | Print | Product List | Glossary Off
Versions: 1 2 3 4 5 6 7 8 9 10 11 12 13 14 15 16 17 18 19 20 21 22 23 24 25 26 27 28 29 30 31 32 33 34 35 36 37 38 39 40 41 42 43 44 45 46 47 48 49 50

000
ASUS45 KTFX 291219
RWRMT
MONTANA HOURLY WEATHER ROUNDUP
NATIONAL WEATHER SERVICE GREAT FALLS MT
519 AM MST THU JAN 29 2015

NOTE: "FAIR" INDICATES FEW OR NO CLOUDS BELOW 12000 FEET WITH NO
SIGNIFICANT WEATHER AND/OR OBSTRUCTIONS TO VISIBILITY.

* THESE STATIONS ARE NOT UNDER NWS QUALITY CONTROL. THEY DO NOT
   REPORT WEATHER SUCH AS PRECIPITATION OR FOG.

MTZ001>007-043-291300-
WEST OF THE DIVIDE
CITY           SKY/WX    TMP DP  RH WIND       PRES   REMARKS
KALISPELL      FAIR      10   7  88 CALM      30.43F
MISSOULA       CLEAR     21  19  92 CALM      30.47R
BUTTE          CLEAR     18  14  84 CALM      30.40S
MULLAN PASS    PTCLDY    27  21  78 S6        30.34F WCI  20
* ANACONDA     PTCLDY    23  16  74 S5         N/A   WCI  16
* ESSEX        N/A       17  15  92 N/A        N/A
* EUREKA APT   CLEAR     19  18  96 CALM      30.47S
* HAMILTON APT PTCLDY    27  21  78 SW2       30.43F
* LIBBY APT    CLEAR     25  25 100 CALM      30.48S
* LINCOLN      N/A       14  12  92 NE1        N/A
* LOOKOUT PASS N/A       22  22 100 SE2        N/A
* POLSON       N/A       26  25  96 N/A        N/A
* RONAN APT    CLEAR     19  19 100 N/A        N/A
* SEELEY LAKE  N/A       11   8  88 NE1        N/A
* THOMP F APT  CLEAR     26  22  85 N5         N/A   WCI  20
* YAAK HILL    N/A       30  28  92 N/A        N/A
$$

MTZ008-052>055-291300-
SOUTHWEST MONTANA
CITY           SKY/WX    TMP DP  RH WIND       PRES   REMARKS
BOZEMAN        CLEAR     19  18  96 SE7       30.41S WCI  10
DILLON         PTCLDY    23  19  85 S8        30.40S WCI  14
* W YELLOWSTON PTCLDY    27  26  96 N/A        N/A
* THREE FORKS  CLEAR     21  21 100 N/A        N/A
* BOULDER HILL N/A       24  16  71 SW9        N/A   WCI  14
* MONIDA PASS  N/A       20  20 100 NE4        N/A
* RAYNOLDS PAS N/A       24   9  53 S4         N/A
* WHITEHALL    N/A       21  18  88 NW4        N/A
* WISE RIVER   N/A       16  13  88 W2         N/A
$$

MTZ009>010-012-014-046-048-049-054-291300-
EAST SLOPES AND CENTRAL MONTANA
CITY           SKY/WX    TMP DP  RH WIND       PRES   REMARKS
CUT BANK       CLEAR     23  21  92 CALM      30.31F
GREAT FALLS    CLEAR     28  23  81 S8        30.34F WCI  20
HELENA         CLEAR     25  21  85 CALM      30.41S
MALMSTROM AFB  CLEAR     25  21  85 S6        30.35F WCI  18
* CONRAD       CLEAR     21  19  92 CALM       N/A
* DEARBORN     N/A       29  24  82 SW4        N/A
* EAST GLACIER N/A       32  23  69 W18G27     N/A   WCI  21
* MONARCH      N/A       24  19  81 S9         N/A   WCI  14
* PENDROY      N/A       26  19  75 N/A        N/A
* ROGERS PASS  N/A       28  20  72 SE8G14     N/A   WCI  20
* SWEET GRASS  N/A       26  26 100 S14        N/A   WCI  14
* WHITE SULPH  N/A       25  19  78 E6         N/A   WCI  18
$$

MTZ011-013-016-021-035-040-045-047-050-051-291300-
NORTH CENTRAL MONTANA
CITY           SKY/WX    TMP DP  RH WIND       PRES   REMARKS
HAVRE          CLEAR     23  19  85 NE5       30.38S WCI  16
LEWISTOWN      CLEAR     27  21  78 SE7       30.36F WCI  19
* N BAR RANCH  CLEAR     25  19  78 VRB5      30.38F WCI  19
* CHINOOK      CLEAR     23  21  92 E5        30.40F VSB 1/2  WCI  16
* CHESTER      N/A       23  21  92 NW1        N/A
* DENTON       N/A       23  21  92 S1         N/A
* GEYSER       N/A       22  19  88 SE4        N/A
* JUDITH GAP   N/A       23  23 100 S8         N/A   WCI  14
* LOMA         N/A       22  21  96 SW2        N/A
$$

MTZ017>020-022>027-061-062-291300-
NORTHEAST MONTANA
CITY           SKY/WX    TMP DP  RH WIND       PRES   REMARKS
GLASGOW        FOG       21  19  92 CALM      30.43R VSB M1/4
GLENDIVE       CLOUDY    27  23  85 SW6       30.44S WCI  20
JORDAN         CLEAR     19  18  96 NW3       30.44R
SIDNEY         CLOUDY    28  21  75 NW7       30.47R WCI  21
WOLF POINT     CLEAR     21  18  88 W3        30.46R
* BEAVER HILL  N/A       26  22  85 W9G14      N/A   WCI  17
* CIRCLE       N/A       24  22  92 N/A        N/A
* LINDSAY DVD  N/A       23  22  96 NW11       N/A   WCI  12
* NAVAJO       N/A       21  19  92 NW9        N/A   WCI  11
* PLENTYWOOD A CLEAR     19  18  96 NW12      30.42R WCI   6
* POPLAR APT   CLEAR     25  21  85 N/A       30.45R
* SACO         N/A       18  17  96 N/A        N/A
$$

MTZ028>042-056>058-291300-
SOUTHCENTRAL AND SOUTHEAST MONTANA
CITY           SKY/WX    TMP DP  RH WIND       PRES   REMARKS
BAKER          MOCLDY    27  23  85 W12       30.42R WCI  16
BILLINGS       CLEAR     30  25  82 SW9       30.41S WCI  22
LIVINGSTON     CLEAR     25  19  78 NW7       30.38F WCI  17
MILES CITY     PTCLDY    23  21  92 NW6       30.45S WCI  16
* BIG TIMBER A CLEAR     28  25  89 CALM      30.39F
* FORSYTH APT  CLEAR     25  23  92 CALM      30.45S
* LAUREL APT   CLEAR     25  14  63 N/A        N/A
* ROUNDUP APT  CLEAR     23  18  81 N/A        N/A
* ALZADA       N/A       23  22  96 W6         N/A   WCI  16
* HYSHAM       N/A       30  27  89 W1         N/A
* LAME DEER    N/A       29  24  82 W4         N/A
* REED POINT   N/A       23  23 100 W2         N/A
* ROSCOE HILL  N/A       31  18  59 SW6        N/A   WCI  25
$$

REGIONAL REPORTS...DAKOTAS
CITY           SKY/WX    TMP DP  RH WIND       PRES   REMARKS
WILLISTON      CLOUDY    25  19  78 NW12      30.44R WCI  14
DICKINSON      MOCLDY    28  21  75 W17       30.35S WCI  16
BEACH          CLOUDY    27  25  92 W9        30.41S WCI  18
CROSBY         CLOUDY    23  21  92 NW15G20   30.43R WCI  10
TIOGA          CLOUDY    23  23 100 NW16G22   30.43R WCI  10
WATFORD CITY   CLOUDY    27  21  78 NW14G22   30.41R WCI  16
BISMARCK       CLOUDY    27  19  72 NW15      30.39R WCI  15
GRAND FORKS    CLOUDY    18  12  77 N22G29    30.31R WCI   1
FARGO          CLOUDY    23  16  74 N23G33    30.29R WCI   7
BUFFALO SD     CLEAR     27  23  85 NW21      30.32R WCI  13
RAPID CITY     PTCLDY    28  23  81 N15       30.40R WCI  16
$$

REGIONAL REPORTS...WYOMING/IDAHO/WASHINGTON
CITY           SKY/WX    TMP DP  RH WIND       PRES   REMARKS
GILLETTE       CLEAR     25  19  78 SW3       30.42S
SHERIDAN       PTCLDY    25  19  78 SW3       30.42S
CODY           PTCLDY    30  27  89 SW6       30.40S WCI  24
YELLOWSTONE LA PTCLDY    16  10  77 CALM      30.44R
SALMON         CLOUDY    21  19  92 CALM      30.48S VSB M1/4
MULLAN PASS    PTCLDY    27  21  78 S6        30.34S WCI  20
SAND POINT     FOG       32  32 100 CALM      30.47S VSB 1 3/4
SPOKANE        FOG       32  32 100 N7        30.43S VSB M1/4 WCI  25
$$

REGIONAL REPORTS...ALBERTA
CITY           SKY/WX    TMP DP  RH WIND       PRES   REMARKS
CALGARY        FAIR      23  21  92 S9        30.25F WCI  13
MEDICINE HAT   CLEAR     25  23  92 NE5       30.35F WCI  19
EDMONTON       FOG       21  19  92 SE12      30.32F VSB 3/4  WCI   9
WATERTON GATE  N/A       36  21  54 SW26G37    N/A   WCI  24
CARDSTON       N/A       25  19  78 SE2        N/A
MILK RIVER     N/A       23  21  92 SW6        N/A   WCI  16
$$

REGIONAL REPORTS...SASKATCHEWAN
CITY           SKY/WX    TMP DP  RH WIND       PRES   REMARKS
SWIFT CURRENT  CLEAR     14  14 100 NW5       30.39S WCI   6
MOOSE JAW      MOCLDY    16  14  92 NW9       30.47R WCI   5
REGINA         LGT SNOW  14  10  84 N12       30.45R
VAL MARIE      N/A       18  16  92 SE1        N/A
ASSINIBOIA     N/A       16  14  92 NW8        N/A   WCI   5
CORONACH       N/A       19  18  96 NW8        N/A   WCI   9

$$



USA.gov is the U.S. government's official web portal to all federal, state and local government web resources and services.